BAW951L LDSP-EGLL

Flight info

Callsign BAW951L
Flight time N/A
Altitude 36000
Route ZDA1W ZDA DCT ROTAR DCT BORMI DCT RESIA DCT ELMUR DCT RIPUS DCT DITON DCT HOC DCT LUL DCT RLP DCT ROTSI DCT KOTUN DCT NINAL DCT ABNUR DCT DIMAL DCT ALESO ALESO1H
Aircraft A320/M-SDE3FGIJ1KRWXY/SB1

Departure

Time 2026-05-03 20:15
Airport Split Saint Jerome Airport (LDSP)

Arrival

Time N/A
Airport London Heathrow Airport (EGLL)
Time Latitude Longitude Altitude Speed Heading
2026-05-03 20:15 43.42043 16.11484 12145 ft 347 kts 323°
2026-05-03 20:15 43.43941 16.09414 12780 ft 350 kts 323°
2026-05-03 20:15 43.45853 16.07318 13416 ft 353 kts 323°
2026-05-03 20:15 43.47781 16.05196 14024 ft 356 kts 323°
2026-05-03 20:16 43.49727 16.03052 14565 ft 359 kts 323°
2026-05-03 20:16 43.51686 16.00892 15114 ft 362 kts 323°
2026-05-03 20:16 43.53658 15.98716 15668 ft 364 kts 323°
2026-05-03 20:16 43.55644 15.96525 16204 ft 367 kts 323°
2026-05-03 20:17 43.57647 15.94316 16746 ft 370 kts 323°
2026-05-03 20:17 43.59663 15.92092 17308 ft 373 kts 323°
2026-05-03 20:17 43.61697 15.89848 17868 ft 376 kts 323°
2026-05-03 20:17 43.63744 15.87586 18428 ft 379 kts 323°
2026-05-03 20:18 43.65808 15.85299 18932 ft 382 kts 323°
2026-05-03 20:18 43.67883 15.82997 19461 ft 384 kts 323°
2026-05-03 20:18 43.69973 15.80678 19993 ft 386 kts 323°
2026-05-03 20:18 43.72074 15.78348 20539 ft 389 kts 323°
2026-05-03 20:19 43.74189 15.75999 21052 ft 391 kts 323°
2026-05-03 20:19 43.76318 15.73639 21538 ft 393 kts 323°
2026-05-03 20:19 43.78458 15.71266 22009 ft 396 kts 323°
2026-05-03 20:19 43.80611 15.68865 22475 ft 398 kts 321°
2026-05-03 20:20 43.82527 15.66086 22951 ft 402 kts 310°
2026-05-03 20:20 43.84268 15.63043 23404 ft 404 kts 309°
2026-05-03 20:20 43.86009 15.59967 23817 ft 407 kts 309°
2026-05-03 20:20 43.87751 15.56868 24197 ft 408 kts 309°
2026-05-03 20:21 43.89495 15.53758 24593 ft 409 kts 309°
2026-05-03 20:21 43.91241 15.50642 24967 ft 410 kts 309°
2026-05-03 20:21 43.92997 15.47504 25344 ft 411 kts 309°
2026-05-03 20:21 43.94753 15.44369 25707 ft 413 kts 309°
2026-05-03 20:22 43.96518 15.41219 26060 ft 414 kts 309°
2026-05-03 20:22 43.98289 15.38062 26418 ft 415 kts 309°
2026-05-03 20:22 44.00061 15.34893 26775 ft 416 kts 309°
2026-05-03 20:22 44.01838 15.31708 27128 ft 418 kts 309°
2026-05-03 20:23 44.03621 15.28507 27431 ft 420 kts 309°
2026-05-03 20:23 44.05410 15.25293 27757 ft 422 kts 309°
2026-05-03 20:23 44.07209 15.22057 28094 ft 423 kts 309°
2026-05-03 20:23 44.09009 15.18817 28462 ft 423 kts 309°
2026-05-03 20:24 44.10804 15.15587 28955 ft 421 kts 309°
2026-05-03 20:24 44.12567 15.12411 29457 ft 419 kts 309°
2026-05-03 20:24 44.14339 15.09215 29964 ft 416 kts 310°
2026-05-03 20:24 44.16102 15.06031 30428 ft 414 kts 309°
2026-05-03 20:25 44.17855 15.02858 30850 ft 412 kts 309°
2026-05-03 20:25 44.19602 14.99695 31234 ft 411 kts 309°
2026-05-03 20:25 44.21340 14.96540 31629 ft 410 kts 309°
2026-05-03 20:25 44.23073 14.93395 32041 ft 408 kts 309°
2026-05-03 20:26 44.24797 14.90265 32464 ft 406 kts 309°
2026-05-03 20:26 44.26515 14.87144 32874 ft 404 kts 309°
2026-05-03 20:26 44.28222 14.84037 33326 ft 402 kts 309°
2026-05-03 20:26 44.29916 14.80947 33764 ft 400 kts 309°
2026-05-03 20:27 44.31603 14.77863 34168 ft 398 kts 309°
2026-05-03 20:27 44.33283 14.74794 34501 ft 397 kts 309°
2026-05-03 20:27 44.34959 14.71732 34806 ft 396 kts 309°
2026-05-03 20:27 44.36630 14.68674 35096 ft 395 kts 309°
2026-05-03 20:28 44.37732 14.66655 35280 ft 395 kts 309°
2026-05-03 20:28 44.39398 14.63601 35554 ft 395 kts 309°
2026-05-03 20:28 44.41059 14.60550 35819 ft 394 kts 309°
2026-05-03 20:28 44.42720 14.57497 36035 ft 394 kts 309°
2026-05-03 20:29 44.44383 14.54437 36094 ft 397 kts 308°
2026-05-03 20:29 44.47777 14.48185 36092 ft 408 kts 308°
2026-05-03 20:30 44.51226 14.41813 36090 ft 411 kts 308°
2026-05-03 20:30 44.54664 14.35435 36100 ft 409 kts 308°
2026-05-03 20:31 44.58095 14.29072 36095 ft 409 kts 308°
2026-05-03 20:31 44.61523 14.22700 36103 ft 409 kts 308°
2026-05-03 20:32 44.64945 14.16312 36107 ft 410 kts 308°
2026-05-03 20:32 44.68368 14.09912 36091 ft 410 kts 308°
2026-05-03 20:33 44.71812 14.03481 36092 ft 413 kts 308°
2026-05-03 20:33 44.75272 13.97010 36089 ft 415 kts 308°
2026-05-03 20:34 44.78736 13.90493 36106 ft 416 kts 308°
2026-05-03 20:34 44.82178 13.83999 36110 ft 417 kts 308°
2026-05-03 20:35 44.85648 13.77436 36110 ft 418 kts 308°
2026-05-03 20:35 44.89114 13.70862 36118 ft 418 kts 308°
2026-05-03 20:36 44.92585 13.64291 36121 ft 418 kts 308°
2026-05-03 20:36 44.96057 13.57712 36121 ft 418 kts 307°
2026-05-03 20:37 44.99513 13.51122 36123 ft 418 kts 307°
2026-05-03 20:37 45.02967 13.44504 36108 ft 419 kts 307°
2026-05-03 20:38 45.06423 13.37872 36111 ft 419 kts 307°
2026-05-03 20:38 45.09885 13.31237 36107 ft 419 kts 307°
2026-05-03 20:39 45.13346 13.24588 36108 ft 420 kts 307°
2026-05-03 20:39 45.16801 13.17922 36107 ft 420 kts 307°
2026-05-03 20:40 45.20261 13.11241 36106 ft 421 kts 306°
2026-05-03 20:40 45.23723 13.04542 36111 ft 421 kts 306°
2026-05-03 20:41 45.27142 12.97781 36109 ft 422 kts 304°
2026-05-03 20:41 45.30268 12.90726 36109 ft 422 kts 301°
2026-05-03 20:42 45.33256 12.83543 36114 ft 422 kts 301°
2026-05-03 20:42 45.36257 12.76427 36112 ft 423 kts 301°
2026-05-03 20:43 45.39324 12.69291 36105 ft 423 kts 301°
2026-05-03 20:43 45.42398 12.62154 36104 ft 423 kts 301°
2026-05-03 20:44 45.45460 12.55009 36103 ft 423 kts 301°
2026-05-03 20:44 45.48520 12.47841 36112 ft 423 kts 301°
2026-05-03 20:45 45.51573 12.40667 36105 ft 423 kts 301°
2026-05-03 20:45 45.54623 12.33478 36103 ft 424 kts 301°
2026-05-03 20:46 45.57666 12.26280 36128 ft 424 kts 301°
2026-05-03 20:46 45.60710 12.19071 36129 ft 424 kts 301°
2026-05-03 20:47 45.63754 12.11851 36132 ft 424 kts 300°
2026-05-03 20:47 45.66794 12.04623 36129 ft 425 kts 300°
2026-05-03 20:48 45.69828 11.97370 36130 ft 425 kts 300°
2026-05-03 20:48 45.72855 11.90105 36146 ft 425 kts 300°
2026-05-03 20:49 45.75887 11.82833 36165 ft 426 kts 299°
2026-05-03 20:49 45.78919 11.75546 36153 ft 426 kts 299°
2026-05-03 20:50 45.81949 11.68239 36164 ft 427 kts 299°
2026-05-03 20:50 45.84977 11.60914 36170 ft 427 kts 299°
2026-05-03 20:51 45.88003 11.53575 36194 ft 427 kts 299°
2026-05-03 20:51 45.91027 11.46235 36195 ft 427 kts 299°
2026-05-03 20:52 45.94050 11.38883 36198 ft 428 kts 298°
2026-05-03 20:52 45.97066 11.31511 36208 ft 428 kts 298°
2026-05-03 20:53 46.00071 11.24134 36223 ft 428 kts 298°
2026-05-03 20:53 46.03077 11.16747 36227 ft 428 kts 298°
2026-05-03 20:54 46.06085 11.09344 36243 ft 429 kts 298°
2026-05-03 20:54 46.10573 10.98229 36251 ft 430 kts 298°
2026-05-03 20:55 46.13578 10.90779 36246 ft 430 kts 298°
2026-05-03 20:55 46.16578 10.83302 36243 ft 431 kts 298°
2026-05-03 20:56 46.19578 10.75808 36243 ft 431 kts 297°
2026-05-03 20:56 46.22585 10.68310 36229 ft 432 kts 297°
2026-05-03 20:57 46.25589 10.60789 36221 ft 433 kts 297°
2026-05-03 20:57 46.28587 10.53252 36217 ft 433 kts 297°
2026-05-03 20:58 46.31579 10.45693 36212 ft 433 kts 297°
2026-05-03 20:58 46.34569 10.38125 36200 ft 434 kts 297°
2026-05-03 20:59 46.37562 10.30528 36175 ft 434 kts 297°
2026-05-03 20:59 46.40564 10.22933 36171 ft 435 kts 297°
2026-05-03 21:00 46.42547 10.17898 36191 ft 435 kts 297°
2026-05-03 21:00 46.46518 10.07736 36214 ft 435 kts 296°
2026-05-03 21:01 46.50091 10.00619 36218 ft 440 kts 308°
2026-05-03 21:01 46.54145 9.93971 36226 ft 440 kts 308°
2026-05-03 21:02 46.58194 9.87303 36212 ft 440 kts 308°
2026-05-03 21:02 46.62246 9.80625 36208 ft 441 kts 308°
2026-05-03 21:03 46.66299 9.73927 36198 ft 441 kts 308°
2026-05-03 21:03 46.70345 9.67199 36175 ft 441 kts 308°
2026-05-03 21:04 46.74388 9.60465 36146 ft 441 kts 308°
2026-05-03 21:04 46.78425 9.53713 36138 ft 442 kts 308°
2026-05-03 21:05 46.82463 9.46951 36121 ft 442 kts 308°
2026-05-03 21:05 46.86507 9.40176 36123 ft 443 kts 308°
2026-05-03 21:06 46.90558 9.33388 36115 ft 443 kts 308°
2026-05-03 21:06 46.94597 9.26585 36105 ft 443 kts 307°
2026-05-03 21:07 46.98629 9.19757 36104 ft 443 kts 307°
2026-05-03 21:07 47.02663 9.12926 36109 ft 444 kts 308°
2026-05-03 21:08 47.06705 9.06080 36114 ft 444 kts 307°
2026-05-03 21:08 47.10734 8.99211 36106 ft 444 kts 307°
2026-05-03 21:09 47.14670 8.92234 36106 ft 441 kts 301°
2026-05-03 21:09 47.17348 8.84238 36102 ft 435 kts 288°
2026-05-03 21:10 47.19461 8.75902 36099 ft 435 kts 288°
2026-05-03 21:10 47.21578 8.67620 36115 ft 436 kts 287°
2026-05-03 21:11 47.23696 8.59278 36105 ft 435 kts 287°
2026-05-03 21:11 47.25794 8.50923 36102 ft 435 kts 287°
2026-05-03 21:12 47.27896 8.42563 36091 ft 435 kts 287°
2026-05-03 21:12 47.30001 8.34213 36092 ft 435 kts 287°
2026-05-03 21:13 47.32103 8.25845 36097 ft 436 kts 287°
2026-05-03 21:13 47.34188 8.17453 36093 ft 436 kts 287°
2026-05-03 21:14 47.36260 8.09057 36089 ft 436 kts 287°
2026-05-03 21:14 47.38333 8.00660 36087 ft 436 kts 287°
2026-05-03 21:15 47.40394 7.92245 36089 ft 436 kts 286°
2026-05-03 21:15 47.42449 7.83831 36083 ft 436 kts 286°
2026-05-03 21:16 47.44506 7.75400 36084 ft 436 kts 286°
2026-05-03 21:16 47.46542 7.66973 36077 ft 435 kts 284°
2026-05-03 21:17 47.47792 7.59802 36076 ft 433 kts 281°
2026-05-03 21:17 47.49241 7.51152 36092 ft 433 kts 280°
2026-05-03 21:18 47.50683 7.42499 36087 ft 434 kts 280°
2026-05-03 21:18 47.52116 7.33836 36079 ft 434 kts 280°
2026-05-03 21:19 47.53542 7.25163 36072 ft 434 kts 280°
2026-05-03 21:19 47.54966 7.16487 36074 ft 434 kts 280°
2026-05-03 21:20 47.56386 7.07811 36084 ft 434 kts 280°
2026-05-03 21:20 47.57804 6.99125 36073 ft 434 kts 280°
2026-05-03 21:21 47.59197 6.90493 36070 ft 434 kts 280°
2026-05-03 21:21 47.60590 6.81799 36071 ft 434 kts 279°
2026-05-03 21:22 47.61976 6.73092 36068 ft 434 kts 279°
2026-05-03 21:22 47.63359 6.64375 36067 ft 435 kts 279°
2026-05-03 21:23 47.64740 6.55653 36073 ft 435 kts 279°
2026-05-03 21:23 47.66114 6.46908 36073 ft 435 kts 279°
2026-05-03 21:24 47.67489 6.38164 36074 ft 435 kts 279°
2026-05-03 21:24 47.68859 6.29412 36095 ft 436 kts 280°
2026-05-03 21:25 47.70526 6.20745 36080 ft 438 kts 284°
2026-05-03 21:25 47.72460 6.12149 36073 ft 439 kts 285°
2026-05-03 21:26 47.74374 6.03543 36060 ft 439 kts 284°
2026-05-03 21:26 47.76208 5.94892 36052 ft 439 kts 283°
2026-05-03 21:27 47.78005 5.86225 36057 ft 439 kts 283°
2026-05-03 21:27 47.79853 5.77566 36047 ft 441 kts 289°
2026-05-03 21:28 47.81365 5.73572 36040 ft 448 kts 302°
2026-05-03 21:28 47.83224 5.69838 36042 ft 449 kts 302°
2026-05-03 21:28 47.86980 5.62402 36046 ft 450 kts 302°
2026-05-03 21:29 47.90742 5.54961 36042 ft 450 kts 302°
2026-05-03 21:29 47.94492 5.47493 36063 ft 450 kts 302°
2026-05-03 21:30 47.98205 5.40056 36039 ft 450 kts 302°
2026-05-03 21:30 48.01942 5.32563 36037 ft 450 kts 302°
2026-05-03 21:31 48.05673 5.25060 36032 ft 450 kts 302°
2026-05-03 21:31 48.09400 5.17534 36030 ft 450 kts 302°
2026-05-03 21:32 48.13122 5.10013 36033 ft 448 kts 301°
2026-05-03 21:32 48.16813 5.02548 36006 ft 445 kts 301°
2026-05-03 21:33 48.20481 4.95078 36001 ft 445 kts 301°
2026-05-03 21:33 48.24150 4.87592 36005 ft 445 kts 301°
2026-05-03 21:34 48.27810 4.80091 36007 ft 446 kts 301°
2026-05-03 21:34 48.31469 4.72586 36003 ft 446 kts 301°
2026-05-03 21:35 48.35127 4.65068 36030 ft 445 kts 300°
2026-05-03 21:35 48.38765 4.57566 36016 ft 443 kts 300°
2026-05-03 21:36 48.42392 4.50073 36008 ft 443 kts 300°
2026-05-03 21:36 48.46015 4.42570 36001 ft 442 kts 300°
2026-05-03 21:37 48.49625 4.35062 35999 ft 442 kts 300°
2026-05-03 21:37 48.53225 4.27550 36000 ft 442 kts 300°
2026-05-03 21:38 48.56794 4.20061 35984 ft 443 kts 300°
2026-05-03 21:38 48.60400 4.12507 35993 ft 443 kts 300°
2026-05-03 21:39 48.64008 4.04942 35988 ft 444 kts 300°
2026-05-03 21:39 48.67605 3.97351 35986 ft 444 kts 300°
2026-05-03 21:40 48.71195 3.89740 35987 ft 444 kts 300°
2026-05-03 21:40 48.75383 3.82730 35986 ft 452 kts 309°
2026-05-03 21:41 48.79888 3.76067 35981 ft 452 kts 309°
2026-05-03 21:41 48.84378 3.69382 35980 ft 453 kts 309°
2026-05-03 21:42 48.88868 3.62659 35982 ft 453 kts 309°
2026-05-03 21:42 48.93349 3.55928 35983 ft 452 kts 309°
2026-05-03 21:43 48.97765 3.49309 35974 ft 442 kts 309°
2026-05-03 21:43 49.02126 3.42752 35967 ft 440 kts 309°
2026-05-03 21:44 49.06472 3.36173 35964 ft 440 kts 309°
2026-05-03 21:44 49.10818 3.29579 35964 ft 440 kts 309°
2026-05-03 21:45 49.15159 3.22980 35964 ft 440 kts 309°
2026-05-03 21:45 49.19498 3.16370 35964 ft 441 kts 308°
2026-05-03 21:46 49.23837 3.09751 35991 ft 441 kts 308°
2026-05-03 21:46 49.28184 3.03113 35988 ft 442 kts 308°
2026-05-03 21:47 49.32534 2.96447 35973 ft 443 kts 308°
2026-05-03 21:47 49.36883 2.89752 35972 ft 443 kts 308°
2026-05-03 21:48 49.41231 2.83036 35972 ft 444 kts 308°
2026-05-03 21:48 49.45577 2.76304 35974 ft 444 kts 308°
2026-05-03 21:49 49.49925 2.69569 35985 ft 444 kts 308°
2026-05-03 21:49 49.54279 2.62811 35984 ft 445 kts 308°
2026-05-03 21:50 49.58629 2.56024 35974 ft 445 kts 308°
2026-05-03 21:50 49.63355 2.49734 35962 ft 453 kts 316°
2026-05-03 21:51 49.68374 2.43852 35956 ft 453 kts 316°
2026-05-03 21:51 49.73367 2.37987 35974 ft 454 kts 316°
2026-05-03 21:52 49.78389 2.32064 35957 ft 454 kts 316°
2026-05-03 21:52 49.83414 2.26133 35982 ft 454 kts 316°
2026-05-03 21:53 49.88449 2.20168 35952 ft 456 kts 316°
2026-05-03 21:53 49.93484 2.14172 35943 ft 457 kts 316°
2026-05-03 21:54 49.98537 2.08162 35947 ft 458 kts 316°
2026-05-03 21:54 50.03597 2.02132 35946 ft 459 kts 316°
2026-05-03 21:55 50.08654 1.96076 35948 ft 459 kts 316°
2026-05-03 21:55 50.13711 1.89998 35951 ft 459 kts 316°
2026-05-03 21:56 50.18599 1.83658 35963 ft 453 kts 310°
2026-05-03 21:56 50.23123 1.76762 35644 ft 455 kts 310°
2026-05-03 21:57 50.25385 1.73315 35398 ft 455 kts 309°
2026-05-03 21:57 50.27648 1.69864 35156 ft 455 kts 309°
2026-05-03 21:57 50.29910 1.66411 34915 ft 454 kts 309°
2026-05-03 21:57 50.32171 1.62948 34677 ft 454 kts 309°
2026-05-03 21:58 50.34428 1.59488 34440 ft 454 kts 308°
2026-05-03 21:58 50.36684 1.56026 34036 ft 455 kts 308°
2026-05-03 21:58 50.38955 1.52528 33006 ft 461 kts 308°
2026-05-03 21:58 50.41242 1.49003 32173 ft 462 kts 309°
2026-05-03 21:59 50.43539 1.45462 31421 ft 461 kts 309°
2026-05-03 21:59 50.45806 1.41969 30926 ft 455 kts 309°
2026-05-03 21:59 50.48052 1.38500 30390 ft 451 kts 309°
2026-05-03 21:59 50.50268 1.35039 29755 ft 447 kts 308°
2026-05-03 22:00 50.52408 1.31540 29185 ft 441 kts 307°
2026-05-03 22:00 50.54474 1.28029 28625 ft 434 kts 306°
2026-05-03 22:00 50.56490 1.24528 28087 ft 429 kts 306°
2026-05-03 22:00 50.58486 1.21072 27547 ft 425 kts 307°
2026-05-03 22:01 50.60521 1.17711 27008 ft 422 kts 309°
2026-05-03 22:01 50.62581 1.14444 26476 ft 419 kts 310°
2026-05-03 22:01 50.64647 1.11235 25956 ft 415 kts 310°
2026-05-03 22:01 50.66704 1.08056 25444 ft 412 kts 311°
2026-05-03 22:02 50.68737 1.04893 24945 ft 409 kts 310°
2026-05-03 22:02 50.70744 1.01737 24464 ft 406 kts 310°
2026-05-03 22:02 50.72733 0.98587 23978 ft 404 kts 310°
2026-05-03 22:02 50.74705 0.95444 23520 ft 401 kts 310°
2026-05-03 22:03 50.76662 0.92315 23024 ft 399 kts 310°
2026-05-03 22:03 50.78602 0.89215 22543 ft 395 kts 311°
2026-05-03 22:03 50.80532 0.86132 22109 ft 392 kts 311°
2026-05-03 22:03 50.82442 0.83076 21655 ft 390 kts 311°
2026-05-03 22:04 50.84337 0.80037 21199 ft 387 kts 311°
2026-05-03 22:04 50.85587 0.78034 20896 ft 385 kts 311°
2026-05-03 22:04 50.87462 0.75031 20424 ft 382 kts 311°
2026-05-03 22:04 50.89323 0.72043 19961 ft 380 kts 311°
2026-05-03 22:05 50.91171 0.69072 19483 ft 378 kts 311°
2026-05-03 22:05 50.93007 0.66112 19009 ft 376 kts 311°
2026-05-03 22:05 50.94834 0.63165 18526 ft 374 kts 311°
2026-05-03 22:05 50.96654 0.60231 18011 ft 372 kts 311°
2026-05-03 22:06 50.98464 0.57308 17439 ft 370 kts 311°
2026-05-03 22:06 51.00265 0.54403 16879 ft 369 kts 312°
2026-05-03 22:06 51.02061 0.51506 16319 ft 367 kts 312°
2026-05-03 22:06 51.03846 0.48615 15762 ft 366 kts 311°
2026-05-03 22:07 51.05624 0.45722 15211 ft 365 kts 312°
2026-05-03 22:07 51.07401 0.42838 14651 ft 365 kts 313°
2026-05-03 22:07 51.09206 0.40010 14092 ft 364 kts 314°
2026-05-03 22:07 51.11033 0.37227 13498 ft 364 kts 314°
2026-05-03 22:08 51.12867 0.34469 12932 ft 361 kts 315°
2026-05-03 22:08 51.14664 0.31765 12742 ft 348 kts 314°
2026-05-03 22:08 51.16402 0.29143 12466 ft 339 kts 314°
2026-05-03 22:08 51.18078 0.26598 12333 ft 327 kts 314°
2026-05-03 22:09 51.19693 0.24136 12182 ft 316 kts 314°
2026-05-03 22:09 51.21253 0.21748 12056 ft 306 kts 314°
2026-05-03 22:09 51.22767 0.19422 11819 ft 300 kts 314°
2026-05-03 22:10 51.25738 0.14835 11177 ft 295 kts 314°
2026-05-03 22:10 51.27211 0.12560 10840 ft 294 kts 314°
2026-05-03 22:10 51.28677 0.10310 10523 ft 292 kts 314°
2026-05-03 22:10 51.30143 0.08074 10202 ft 290 kts 314°
2026-05-03 22:11 51.31661 0.05967 9883 ft 290 kts 327°
2026-05-03 22:11 51.33552 0.04910 9544 ft 290 kts 353°
2026-05-03 22:11 51.35558 0.04839 8960 ft 289 kts
2026-05-03 22:11 51.37562 0.04940 8360 ft 287 kts
2026-05-03 22:12 51.39570 0.05061 7642 ft 291 kts
2026-05-03 22:12 51.41604 0.05184 6916 ft 294 kts
2026-05-03 22:12 51.43655 0.05305 6197 ft 296 kts
2026-05-03 22:12 51.45716 0.05422 5447 ft 297 kts
2026-05-03 22:13 51.47737 0.05525 5194 ft 280 kts
2026-05-03 22:13 51.49616 0.05618 5062 ft 261 kts
2026-05-03 22:13 51.51371 0.05707 4934 ft 243 kts
2026-05-03 22:13 51.53002 0.05609 4711 ft 228 kts 343°
2026-05-03 22:14 51.54292 0.04364 4540 ft 210 kts 307°
2026-05-03 22:14 51.54838 0.02328 4331 ft 194 kts 270°
2026-05-03 22:14 51.54555 0.00284 4097 ft 188 kts 246°
2026-05-03 22:14 51.53980 -0.01609 3751 ft 189 kts 242°
2026-05-03 22:15 51.53362 -0.03488 3429 ft 190 kts 241°
2026-05-03 22:15 51.52738 -0.05354 3123 ft 190 kts 241°
2026-05-03 22:15 51.52109 -0.07213 2831 ft 189 kts 241°
2026-05-03 22:15 51.51481 -0.09056 2547 ft 187 kts 241°
2026-05-03 22:16 51.50854 -0.10882 2262 ft 186 kts 241°
2026-05-03 22:16 51.50231 -0.12688 1984 ft 185 kts 241°
2026-05-03 22:16 51.49609 -0.14481 1710 ft 183 kts 241°
2026-05-03 22:16 51.48991 -0.16257 1435 ft 181 kts 241°
2026-05-03 22:17 51.48379 -0.18020 1138 ft 181 kts 241°
2026-05-03 22:17 51.47853 -0.19835 1066 ft 180 kts 255°
2026-05-03 22:17 51.47806 -0.21834 1223 ft 181 kts 271°
2026-05-03 22:17 51.47807 -0.23856 1477 ft 181 kts 269°
2026-05-03 22:18 51.47801 -0.25862 1593 ft 177 kts 270°
2026-05-03 22:18 51.47798 -0.27823 1353 ft 170 kts 269°
2026-05-03 22:18 51.47795 -0.29614 1223 ft 151 kts 270°
2026-05-03 22:18 51.47792 -0.31192 984 ft 137 kts 269°
2026-05-03 22:19 51.47790 -0.32707 674 ft 131 kts 269°
2026-05-03 22:19 51.47796 -0.34042 528 ft 115 kts 268°
2026-05-03 22:19 51.47771 -0.35467 445 ft 134 kts 265°
2026-05-03 22:19 51.47736 -0.36999 1068 ft 146 kts 269°
2026-05-03 22:20 51.47745 -0.38755 1468 ft 169 kts 270°
2026-05-03 22:20 51.47754 -0.40777 1967 ft 196 kts 270°
2026-05-03 22:20 51.47765 -0.43215 2279 ft 239 kts 270°